Regional Weather Roundup
Issued by NWS Sioux Falls, SD

Home | Current Version | Previous Version | Text Only | Print | Product List | Glossary Off
Versions: 1 2 3 4 5 6 7 8 9 10 11 12 13 14 15 16 17 18 19 20 21 22 23 24 25 26 27 28 29 30 31 32 33 34 35 36 37 38 39 40 41 42 43 44 45 46 47 48 49 50

000
ASUS43 KFSD 211202
RWRFSD

WEATHER ROUNDUP FOR SE SOUTH DAKOTA/SW MINNESOTA/NW IOWA
NATIONAL WEATHER SERVICE SIOUX FALLS SD
600 AM CST SUN DEC 21 2014

NOTE: "FAIR" INDICATES FEW OR NO CLOUDS BELOW 12,000 FEET WITH NO
SIGNIFICANT WEATHER AND OR OBSTRUCTIONS TO VISIBILITY.


SDZ038>040-050-052>070-211300-
SOUTHEAST SOUTH DAKOTA

CITY           SKY/WX    TMP DP  RH WIND       PRES   REMARKS
CHAMBERLAIN    NOT AVBL
HURON          FOG       31  30  96 S12       29.76F VSB 1   WCI  22
6HR MIN TEMP:  30; 6HR MAX TEMP:  31;

MADISON        FOG       30  30 100 SW12      29.79F VSB 1/2 WCI  21
MITCHELL       CLOUDY    31  31 100 S12       29.78F FOG     WCI  22
6HR MIN TEMP:  31; 6HR MAX TEMP:  32;

SIOUX FALLS    FOG       32  32 100 S10       29.81S VSB 1   WCI  24
6HR MIN TEMP:  30; 6HR MAX TEMP:  32;

WINNER         FAIR      36  26  67 SE7       29.69F
YANKTON        CLOUDY    32  30  93 S10       29.82F WCI  24
$$

MNZ071-072-080-081-089-090-097-098-211300-
SOUTHWEST MINNESOTA

CITY           SKY/WX    TMP DP  RH WIND       PRES   REMARKS
FAIRMONT       CLOUDY    34  30  86 S14       29.87F VSB 1/2 WCI  24
JACKSON        FOG       32  32 100 S8        29.85F VSB 1   WCI  25
LUVERNE        FOG       32  32 100 S9        29.82S VSB 3/4 WCI  24
MARSHALL       CLOUDY    32  28  86 S8        29.83F WCI  25
6HR MIN TEMP:  30; 6HR MAX TEMP:  32;

MONTEVIDEO     CLOUDY    30  30 100 S8        29.84F WCI  23
PIPESTONE      FOG       30  30 100 S5        29.79S VSB 1/2 WCI  25
REDWOOD FALLS  CLOUDY    32  31  96 S10       29.85F FOG     WCI  24
TRACY          CLOUDY    32  32  99 S3        29.82F FOG
WINDOM         MIX PCPN  32  32 100 SE10      29.83F VSB 1/2 WCI  24
WORTHINGTON    CLOUDY    30  30 100 S13       29.83F VSB 1/2 WCI  20
$$

IAZ001>003-012>014-020>022-031-032-NEZ013-014-SDZ071-211300-
NORTHWEST IOWA

CITY           SKY/WX    TMP DP  RH WIND       PRES   REMARKS
DENISON        CLOUDY    36  36 100 S15G23    29.88F FOG
ESTHERVILLE    FOG       32  32 100 S14       29.85F VSB 1/4 WCI  22
SIOUX CITY     FOG       36  35  96 SE7       29.86F VSB 1/2
6HR MIN TEMP:  33; 6HR MAX TEMP:  36;

SPENCER        FOG       34  33  96 S13       29.86F VSB 1/4 WCI  25
6HR MIN TEMP:  32; 6HR MAX TEMP:  34; 6HR PCP: TRACE;

$$

ABBREVIATIONS USED IN REMARKS
   TC - TEMPERATURE IN CELSIUS
  WCI - WIND CHILL INDEX
   HX - HEAT INDEX
  VSB - VISIBILITY



USA.gov is the U.S. government's official web portal to all federal, state and local government web resources and services.